Simultaneous Nadir Overpasses (SNOs) Predictions

Prediction of SNOs between AQUA and NPP Satellite Orbit:

Table of predicted SNOs for the next 14.0 days since TLE Epoch: 5/14/2016
Index Date (AQUA) Time (AQUA) Lat,Lon (AQUA) SZA (AQUA ) Date (NPP) Time (NPP) Lat,Lon (NPP) SZA (NPP ) Distance(km) Time Diff (sec)
1 05/16/2016 05:33:17 -74.02, 150.60 99.53 05/16/2016 05:32:34 -74.01, 150.54 99.47 2.18 43
2 05/16/2016 06:22:13 75.51, -37.97 78.80 05/16/2016 06:22:47 75.51, -38.00 78.78 0.80 34
3 05/18/2016 21:49:23 -74.94, -91.27 101.12 05/18/2016 21:49:10 -74.94, -91.23 101.12 1.32 13
4 05/18/2016 22:38:30 75.86, 78.93 77.83 05/18/2016 22:39:35 75.85, 78.84 77.80 2.74 65
5 05/21/2016 13:16:35 74.13,-144.99 79.27 05/21/2016 13:15:36 74.14,-144.93 79.30 2.02 59
6 05/21/2016
